GFSSE_sfc_dewp_024.txt.gz
Dewpoint
65 65 71 71 71 71 70 70 70 70 70 69 69 68 68 68 67 67 67 67 66 65 64 64 62 62 61 61 61 62 63 64 64 65 66 67 67 67 66 65 67 60 67
66 65 70 70 71 70 70 71 70 70 70 68 68 68 67 67 67 67 67 66 63 62 61 60 59 59 58 59 59 60 61 62 64 64 64 66 66 66 66 66 68 64 67
66 65 65 70 70 70 70 71 71 69 68 67 67 66 65 65 65 64 65 65 62 60 59 58 58 59 61 61 61 62 62 64 64 63 64 56 60 66 65 64 66 66 66
67 65 64 70 70 70 71 71 70 69 68 67 66 64 64 64 63 63 63 64 62 59 57 58 60 60 61 61 61 62 62 63 64 64 58 57 57 65 64 64 64 65 65
67 65 65 69 70 70 70 70 70 70 68 68 66 63 63 63 62 62 63 63 62 60 59 59 59 59 60 61 61 61 61 60 62 59 55 58 57 62 65 65 64 64 65
67 65 68 69 70 70 70 70 70 69 68 68 66 64 62 61 61 61 64 64 61 60 60 61 61 61 61 62 61 60 59 60 61 49 52 58 59 63 63 62 64 64 65
68 66 67 68 68 69 70 70 70 69 68 68 66 65 63 61 61 62 63 64 62 61 61 61 61 62 62 62 59 59 59 59 41 41 44 50 58 62 62 62 62 62 64
66 66 66 68 68 68 70 69 69 68 68 68 66 65 62 62 62 62 62 62 62 62 62 61 62 62 62 62 61 59 58 58 44 41 42 44 60 60 60 60 62 62 61
66 66 67 65 67 68 68 67 67 67 67 67 66 65 64 64 64 63 62 61 61 62 62 62 63 63 62 61 61 60 56 55 47 44 40 43 58 58 58 58 59 60 59
65 66 67 67 66 66 67 67 66 66 66 66 65 64 63 63 63 62 63 63 62 62 62 63 62 62 60 60 60 60 59 56 47 46 44 48 57 57 57 58 58 58 59
66 66 66 64 65 65 63 65 65 66 65 65 63 63 61 58 59 58 62 63 62 61 61 61 61 59 59 58 59 59 60 45 47 45 45 57 57 58 57 57 61 59 59
64 65 65 66 66 64 60 61 59 57 58 60 60 61 60 62 61 59 61 61 58 57 59 58 57 57 54 46 46 54 46 48 45 45 47 56 57 58 58 58 58 59 61
63 64 65 65 65 61 58 56 55 56 60 61 63 63 63 63 64 61 57 54 57 55 53 53 52 49 51 49 47 48 47 45 43 43 49 54 55 56 57 58 59 59 59
62 60 61 61 61 61 55 54 57 59 61 63 63 65 65 62 63 62 54 55 57 54 54 52 50 52 50 48 47 46 45 43 40 39 45 53 54 55 56 57 57 57 57
56 57 58 59 59 59 59 59 61 62 62 63 63 64 62 59 61 57 57 54 53 52 50 50 49 47 46 45 45 44 42 42 42 37 37 53 52 52 53 54 54 53 53
52 56 58 56 58 58 60 62 61 61 59 60 62 62 62 60 59 57 55 52 52 50 49 48 47 44 43 43 42 43 43 41 42 42 38 40 49 47 48 48 49 50 49
51 57 59 59 59 60 61 61 61 60 60 58 60 61 60 59 57 55 53 52 51 50 49 46 46 43 42 40 40 40 39 41 39 41 41 40 42 47 45 45 45 45 46
53 58 61 60 60 62 62 61 60 61 60 58 59 58 55 53 55 53 51 50 49 47 45 43 43 41 40 40 41 39 39 40 40 39 40 43 40 38 42 43 42 42 42
56 60 61 62 61 60 60 61 61 57 53 52 54 54 53 52 51 49 48 48 47 44 44 42 42 43 42 41 39 37 37 36 35 27 37 42 42 40 38 44 43 42 40
59 61 61 61 61 61 61 60 53 50 51 51 50 48 47 47 48 47 46 46 44 43 44 45 45 43 41 39 34 28 32 32 32 34 38 37 35 38 38 39 37 35 42
60 60 61 61 62 60 59 55 51 51 50 47 46 46 46 45 45 45 43 45 46 43 45 44 40 39 36 38 37 31 30 31 37 37 36 35 37 36 37 35 35 34 34
59 60 60 60 60 57 53 51 50 50 49 46 45 46 44 44 43 43 44 42 43 39 42 43 42 38 35 35 35 31 26 26 26 33 31 33 34 34 33 34 35 35 35
58 59 58 57 57 51 51 51 51 50 47 44 44 44 43 44 42 42 42 41 40 39 36 41 40 38 34 31 32 30 28 24 26 26 29 27 33 30 32 31 33 32 34
58 58 53 51 49 50 49 47 47 45 45 45 44 43 42 43 40 38 40 42 42 40 40 39 34 36 34 29 29 26 31 30 25 25 25 27 27 26 30 27 29 29 30
55 52 50 48 47 47 48 48 46 44 43 41 41 40 41 41 41 41 41 43 43 42 40 38 36 35 32 31 29 27 28 26 27 24 21 22 22 22 24 25 25 26 27
48 49 48 46 45 45 44 44 43 41 36 34 36 36 34 35 37 39 40 43 43 41 39 37 38 36 35 32 28 28 26 25 23 23 22 21 21 20 22 23 25 25 25

GFSSE_sfc_dewp_030.txt.gz
Dewpoint
60 66 71 71 71 71 70 70 70 70 70 70 69 69 69 68 68 67 66 65 64 61 60 60 61 61 61 62 63 64 64 64 65 68 67 67 66 66 65 66 67 64 68
63 65 70 70 70 70 70 70 70 70 69 68 68 68 68 67 67 66 65 64 63 60 61 62 61 61 63 63 63 64 65 65 66 66 67 66 66 66 65 67 67 65 67
62 65 67 70 70 70 71 70 70 69 67 66 67 67 67 66 65 65 65 63 63 61 61 60 61 61 62 62 62 62 63 64 65 66 66 61 61 64 65 67 66 66 67
62 63 66 70 70 70 70 70 69 68 66 67 67 66 65 64 63 63 65 64 63 60 59 59 59 59 59 59 60 61 62 63 63 63 56 56 58 63 61 61 63 65 65
61 63 68 69 69 70 70 69 69 68 67 66 66 64 62 62 63 63 64 64 63 61 60 60 59 59 60 62 62 62 62 62 62 58 55 58 59 61 62 61 59 63 65
63 66 68 68 68 69 70 69 69 68 66 66 65 64 62 63 63 64 65 64 63 62 61 61 61 61 63 63 62 62 61 61 60 49 52 58 58 61 60 60 63 62 64
67 67 67 67 67 69 69 69 68 67 66 65 65 64 64 63 63 64 65 64 63 62 62 62 62 62 63 63 63 62 61 61 53 47 51 56 60 60 59 59 60 61 61
67 67 67 67 68 68 69 68 68 67 66 65 64 64 64 64 64 65 64 64 64 63 63 63 62 62 62 62 61 61 61 61 52 48 50 56 61 60 59 59 62 62 62
67 66 67 67 68 67 67 67 67 66 66 65 65 65 65 65 64 64 64 64 64 63 63 63 62 61 61 61 60 60 60 61 54 52 51 56 61 60 60 59 61 62 62
64 66 66 66 66 65 65 66 65 65 65 64 64 63 63 63 63 64 64 64 63 62 62 61 61 60 61 59 59 57 58 58 46 48 53 58 61 59 60 60 60 60 63
63 64 66 65 65 64 64 64 65 65 64 63 63 63 62 59 60 61 63 63 61 61 62 61 60 58 61 60 60 60 58 46 46 47 51 59 57 57 58 60 61 61 61
60 64 65 65 65 63 56 61 61 61 60 59 59 60 61 63 61 59 61 61 59 59 60 60 58 59 59 51 51 54 48 48 45 45 51 57 54 52 55 58 59 59 60
62 62 63 63 63 58 58 58 58 59 61 62 63 64 64 63 63 61 63 57 58 59 58 56 56 53 52 52 51 50 49 46 46 44 52 55 52 50 50 53 55 56 56
61 61 62 61 62 60 58 56 57 60 61 65 64 63 63 63 63 61 59 57 57 56 55 55 55 54 53 51 49 50 48 47 45 45 50 55 53 49 48 50 51 52 52
58 60 58 60 60 59 60 61 62 64 64 65 64 63 64 62 62 61 59 57 56 55 54 54 53 51 49 47 49 47 46 46 45 46 46 54 53 49 48 49 50 50 50
54 56 58 57 59 59 62 63 62 61 61 61 61 62 63 62 61 60 58 56 56 52 51 51 50 48 49 49 46 47 46 45 43 42 42 45 53 52 49 48 47 46 45
53 55 57 57 59 61 61 60 60 59 60 60 61 62 61 59 58 57 56 54 52 52 49 49 49 48 48 46 45 45 44 42 37 38 41 38 43 52 50 46 43 42 43
53 55 57 56 61 60 59 59 58 60 60 59 59 57 57 57 57 54 53 53 52 53 50 48 49 48 47 46 45 42 41 37 35 37 35 37 36 43 49 47 42 41 42
54 57 59 61 61 60 61 62 61 61 56 56 56 55 55 54 54 54 53 53 52 50 50 50 49 47 44 42 37 34 39 37 37 32 34 38 42 41 39 48 48 47 40
58 59 60 62 62 61 61 60 59 58 56 55 55 53 53 52 52 52 51 50 50 49 48 48 47 45 42 40 34 34 38 38 34 36 37 38 36 36 38 37 38 37 43
60 60 60 61 60 60 59 58 56 55 54 54 53 52 51 51 49 50 50 49 49 46 45 43 42 42 41 41 38 35 34 33 33 35 32 32 33 32 34 37 34 33 33
60 61 61 60 59 60 59 57 57 54 54 52 51 51 50 49 48 48 48 46 45 43 43 43 42 41 40 40 37 35 31 31 32 30 31 31 32 35 32 30 32 33 32
60 61 60 60 60 60 59 57 55 54 51 49 49 49 48 47 45 44 43 44 44 44 43 43 41 40 37 38 38 35 31 29 29 30 29 31 31 31 32 31 29 31 29
59 60 60 60 60 59 58 53 53 49 47 49 50 49 47 47 44 41 41 43 44 44 43 43 39 40 39 37 37 35 35 32 26 24 27 29 29 26 28 31 30 30 29
59 60 60 60 58 54 52 53 52 49 50 48 47 45 42 44 43 40 41 43 42 42 42 42 41 39 39 38 36 35 33 31 29 27 25 25 27 27 27 28 29 30 28
59 60 60 58 51 52 51 52 52 49 45 43 42 41 42 41 40 40 39 39 39 39 39 40 41 40 38 38 37 36 34 30 28 27 26 26 25 25 26 27 28 29 30

GFSSE_sfc_dewp_033.txt.gz
Dewpoint
68 70 71 71 71 71 71 71 70 70 70 69 69 69 68 67 67 66 65 64 64 62 62 62 63 63 63 64 65 65 66 66 67 67 67 67 67 66 65 66 67 65 67
69 70 70 71 71 71 71 70 70 69 69 68 68 68 67 67 66 65 65 65 64 62 62 62 62 62 62 62 62 62 63 66 67 66 66 64 64 65 65 67 67 66 68
68 69 69 70 70 71 71 70 69 68 68 67 67 67 66 65 65 65 65 64 63 60 60 60 58 58 58 59 61 63 63 63 63 63 65 60 60 62 61 63 66 66 66
67 68 68 70 70 70 70 69 68 67 67 67 66 66 65 64 64 65 64 63 63 60 59 59 59 59 60 61 63 63 63 63 64 63 59 59 59 63 61 60 60 65 65
64 67 69 69 69 70 69 68 68 67 67 66 65 65 64 63 63 64 65 64 64 61 61 61 61 61 62 63 62 62 62 62 62 58 58 58 58 58 60 60 60 60 64
66 67 67 67 68 68 69 68 67 67 66 65 65 65 64 64 63 64 65 65 62 62 62 61 61 61 63 62 62 61 62 62 56 54 56 60 58 60 60 60 61 61 62
67 67 65 66 67 69 69 68 67 66 65 65 66 66 65 64 63 64 65 65 63 62 62 62 61 62 63 62 62 61 60 61 49 53 57 58 59 60 60 60 60 61 61
65 65 66 67 68 68 68 67 66 65 65 65 65 65 65 65 65 65 65 65 64 63 63 62 62 62 61 62 61 60 59 60 51 52 56 57 62 61 60 60 63 63 63
66 65 66 67 67 67 66 66 65 65 65 65 65 65 65 64 65 65 65 65 64 64 63 62 60 59 59 60 61 60 58 59 51 52 55 58 62 60 61 61 61 61 63
65 65 66 67 66 65 64 65 65 64 64 64 64 63 63 63 64 64 64 64 63 62 62 61 60 58 58 57 59 60 56 54 47 52 56 58 60 58 59 60 61 62 62
62 63 64 65 64 63 63 64 64 63 63 63 63 62 62 60 60 62 62 62 61 60 60 60 59 58 60 59 59 60 55 46 46 51 53 58 58 53 56 58 59 59 60
60 60 60 63 63 62 60 62 61 60 60 59 59 60 59 60 60 59 61 61 60 59 59 59 60 58 56 50 50 53 47 45 45 48 51 56 53 50 52 55 56 56 56
60 60 61 63 62 57 58 59 59 59 58 59 59 60 62 61 60 60 61 58 56 59 56 56 55 53 51 50 49 48 47 44 45 44 51 54 51 48 49 53 53 54 53
61 61 62 63 59 56 58 57 58 60 63 63 63 62 61 62 61 59 57 57 56 56 54 53 52 49 46 46 46 45 45 44 45 45 49 54 54 48 48 51 51 51 51
60 60 60 60 56 56 57 61 62 63 62 63 61 62 61 60 59 58 56 55 53 52 51 49 48 45 45 46 46 46 45 45 41 41 43 54 54 50 49 50 49 47 47
60 59 58 57 56 59 61 62 62 60 59 60 61 62 61 60 57 56 54 52 51 49 48 47 47 46 47 46 45 45 43 41 35 35 39 41 54 53 50 48 46 45 45
57 56 56 56 61 60 59 58 58 58 58 59 60 60 57 57 55 54 52 51 49 49 48 47 48 47 46 46 45 41 40 36 36 37 35 36 48 53 52 46 42 42 43
55 54 55 58 60 58 58 58 57 58 58 58 56 55 54 55 52 52 51 50 50 51 47 48 47 46 44 42 40 37 38 36 36 33 33 35 39 45 51 48 43 42 42
54 53 56 60 58 58 59 58 59 57 56 55 55 53 53 53 53 51 50 48 49 49 48 46 46 45 41 39 36 34 37 36 33 34 32 33 36 37 44 49 43 43 39
54 55 60 60 59 59 59 59 58 55 55 55 53 52 52 51 51 50 48 48 47 46 44 43 42 42 40 39 36 36 34 34 34 34 31 31 33 34 36 34 36 35 42
57 60 60 59 59 59 58 57 55 54 53 53 52 51 51 48 48 48 47 45 43 42 40 41 40 39 39 39 36 35 34 34 31 30 31 31 32 31 31 31 32 33 33
58 59 60 59 58 59 58 58 55 53 52 51 49 49 48 47 47 45 44 42 42 41 41 41 39 39 38 37 33 35 31 32 32 29 30 30 30 30 30 27 30 30 31
59 59 59 59 58 59 59 57 55 52 49 48 47 47 46 45 44 44 43 42 42 42 41 40 40 37 35 36 36 34 31 29 29 28 27 29 28 28 28 29 29 28 29
59 59 59 59 58 59 59 56 51 47 45 47 48 46 44 44 42 39 41 42 42 42 40 41 40 38 36 35 36 35 34 33 27 26 27 27 27 26 27 28 29 28 28
59 59 60 60 59 59 59 54 50 48 46 47 46 45 45 44 42 38 38 36 36 38 37 37 38 39 38 36 35 35 33 32 29 26 25 25 27 27 27 27 27 28 28
58 59 59 59 59 57 51 51 48 46 42 40 39 39 41 39 38 36 35 35 35 35 36 37 37 39 37 36 37 37 34 32 29 27 26 26 26 27 27 27 27 28 29

GFSSE_sfc_dewp_036.txt.gz
Dewpoint
69 71 71 71 71 71 71 70 70 69 69 68 67 67 67 66 65 65 66 65 64 62 63 63 62 63 63 63 63 65 66 67 67 67 66 64 64 65 66 67 68 65 67
70 70 70 71 71 71 71 70 69 69 68 66 67 67 66 65 66 66 65 65 64 61 60 59 60 60 60 61 62 62 63 65 67 66 64 63 62 61 61 65 67 64 66
69 70 69 70 70 70 70 69 69 68 66 65 65 65 65 65 66 65 64 64 63 60 59 60 60 60 60 61 63 64 63 63 64 65 64 60 58 60 60 61 64 65 65
69 69 69 70 70 70 69 68 68 66 65 66 65 65 65 65 64 65 64 63 63 61 60 60 59 59 61 63 63 65 65 65 65 63 59 58 56 60 59 59 59 60 64
68 67 69 69 69 69 68 68 67 67 66 66 66 65 64 64 63 64 65 64 64 61 60 60 59 60 62 63 62 63 62 62 62 59 58 57 56 58 60 60 59 60 59
67 67 68 68 68 69 68 68 67 66 65 66 66 66 65 63 63 64 65 64 63 61 60 60 60 61 63 62 62 62 62 61 59 57 58 60 58 60 61 61 60 60 61
66 66 66 67 68 68 68 67 67 66 66 66 66 66 65 64 63 64 65 65 63 61 60 60 60 62 62 61 61 61 60 60 54 56 57 59 60 61 61 61 61 62 61
65 66 65 67 67 67 67 66 65 65 66 66 66 66 65 65 65 65 65 65 64 64 63 61 61 61 62 61 61 59 60 58 53 55 57 58 62 60 61 61 62 62 63
66 65 65 64 65 66 66 65 65 65 65 65 65 65 65 65 65 65 65 65 64 63 62 61 60 58 59 60 60 59 58 59 52 55 57 58 61 58 58 60 61 61 61
62 61 62 65 63 65 64 65 64 64 65 64 64 64 63 64 64 64 64 64 63 62 61 60 59 58 60 59 59 58 55 56 50 53 55 57 58 56 56 57 59 60 59
63 60 61 63 64 64 63 63 64 64 64 63 63 63 62 61 61 61 61 62 61 61 59 59 58 59 58 60 58 57 52 46 49 49 51 57 56 52 54 56 57 56 56
60 61 61 63 63 62 61 61 60 59 59 60 59 60 59 59 60 60 61 61 60 60 59 58 59 58 54 49 49 51 45 43 45 48 49 54 52 49 52 54 55 54 54
58 60 61 63 62 60 59 60 59 58 58 58 58 59 59 60 60 60 60 57 54 58 56 54 50 49 47 47 46 46 45 44 45 44 48 53 51 48 49 52 53 53 52
56 58 61 62 61 58 58 59 58 57 59 61 62 62 61 61 60 58 58 55 55 54 51 50 48 46 46 46 46 45 44 43 40 41 43 53 52 48 48 51 51 50 49
57 58 59 61 61 57 57 57 59 61 62 62 61 60 60 58 57 56 55 52 51 50 48 47 46 46 47 45 45 43 42 37 35 36 40 49 52 49 48 50 48 47 46
58 59 59 61 58 57 60 60 62 61 60 60 61 60 60 58 55 54 51 50 48 47 47 47 47 46 46 44 43 41 37 36 36 35 35 36 49 52 50 48 45 45 43
59 59 60 59 58 61 60 59 58 58 58 59 59 58 58 56 54 52 50 49 49 48 47 47 47 45 43 40 38 38 38 36 35 33 35 36 42 53 52 44 43 43 41
59 58 57 59 60 58 58 57 57 58 58 57 56 55 54 54 52 51 49 49 50 49 48 47 45 43 40 39 36 34 37 34 33 32 32 34 38 47 49 45 43 42 41
58 56 58 59 58 58 57 58 57 57 57 55 54 53 53 53 52 50 48 49 48 47 46 45 45 42 39 38 37 36 34 34 34 31 30 32 34 39 37 42 40 40 36
56 55 59 58 58 57 58 58 56 54 54 54 52 52 51 52 51 49 48 47 45 42 41 40 39 39 39 38 35 33 34 33 32 31 31 32 30 31 32 31 32 34 42
54 58 59 58 58 57 57 56 54 53 53 53 52 51 51 49 50 47 44 43 42 40 41 40 39 38 38 36 34 34 35 33 31 29 31 30 29 29 29 29 30 32 32
54 58 59 58 58 57 57 56 54 53 53 52 51 51 48 48 46 45 43 41 41 41 40 40 38 38 38 36 33 34 30 32 32 29 29 30 27 28 28 28 28 27 29
58 59 58 58 57 58 58 57 53 51 49 48 47 47 46 46 45 43 42 42 42 41 40 40 38 36 35 36 36 33 30 28 30 29 27 27 27 27 27 28 27 27 27
58 60 59 58 58 58 58 56 52 50 48 47 47 46 44 44 43 42 42 43 42 40 38 39 39 38 36 34 36 35 33 33 29 27 27 27 27 26 27 27 27 27 27
58 58 59 59 58 58 58 56 52 48 47 48 47 45 44 43 40 39 38 36 37 37 36 35 36 36 38 36 35 34 34 33 30 28 26 25 27 28 27 27 27 28 27
58 59 59 58 58 58 58 56 51 48 46 47 45 44 43 38 38 36 35 35 35 35 35 36 36 38 37 36 36 36 35 33 31 29 27 27 27 29 27 28 27 28 29